Weather History for Coventry, United Kingdom

Change the Weather History Date:

Saturday, October 27, 2012

  Actual Average Record
Temperature  
Mean Temperature 42 °F -  
Max Temperature 48 °F 49 °F 66 °F (2005)
Min Temperature 35 °F 38 °F 32 °F (2003)
Degree Days  
Heating Degree Days 24    
Moisture  
Dew Point 33 °F    
Average Humidity 69    
Maximum Humidity 81    
Minimum Humidity 58    
Precipitation  
Precipitation 0.00 in - - ()
Sea Level Pressure  
Sea Level Pressure 30.08 in    
Wind  
Wind Speed 15 mph ()    
Max Wind Speed 20 mph    
Max Gust Speed 30 mph    
Visibility 6.2 miles    
Events      
Averages and records for this station are not official NWS values.
T = Trace of Precipitation, MM = Missing Value Source: Averaged Metar Reports

Daily Weather History Graph

Daily Weather History Graph

Search for Another Location

Airport:

Trip Planner

Search our weather history database for the weather conditions in past years. The results will help you decide how hot, cold, wet, or windy it might be!

Date:

Astronomy

Oct. 27, 2012 Rise Set
Actual Time 7:53 AM BST 5:45 PM BST
Civil Twilight 7:17 AM BST 6:20 PM BST
Nautical Twilight 6:37 AM BST 7:00 PM BST
Astronomical Twilight 5:58 AM BST 7:39 PM BST
Moon 4:33 PM BST (10/27) 5:20 AM BST (10/27)
Length of Visible Light 11h 03m
Length of Day
9h 52m
Waxing Gibbous, 95% of the Moon is Illuminated
Oct 27
Waxing Gibbous
Oct 29
Full
Nov 7
Last Quarter
Nov 13
New
Nov 20
First Quarter

Hourly Weather History & Observations

Time (BST) Temp. Windchill Dew Point Humidity Pressure Visibility Wind Dir Wind Speed Gust Speed Precip Events Conditions
12:20 AM 37.4 °F 27.5 °F 28.4 °F 70% 29.95 in - North 18.4 mph - N/A   Clear
12:50 AM 37.4 °F 27.8 °F 30.2 °F 75% 29.95 in - North 17.3 mph 29.9 mph N/A   Clear
1:20 AM 35.6 °F 26.6 °F 30.2 °F 81% 29.98 in - North 13.8 mph - N/A   Clear
8:20 AM 35.6 °F 26.2 °F 30.2 °F 81% 30.04 in - NNW 15.0 mph - N/A   Clear
8:50 AM 35.6 °F 26.2 °F 30.2 °F 81% 30.06 in - NNW 15.0 mph - N/A   Clear
9:20 AM 35.6 °F 26.2 °F 30.2 °F 81% 30.06 in - NW 15.0 mph - N/A   Clear
9:50 AM 37.4 °F 27.8 °F 30.2 °F 75% 30.06 in - NW 17.3 mph - N/A   Clear
10:20 AM 39.2 °F 30.5 °F 32.0 °F 75% 30.09 in 6.2 mi NW 16.1 mph - N/A   Partly Cloudy
10:50 AM 39.2 °F 29.8 °F 32.0 °F 75% 30.09 in 6.2 mi NW 18.4 mph 29.9 mph N/A   Partly Cloudy
11:20 AM 41.0 °F 32.8 °F 32.0 °F 70% 30.09 in 6.2 mi NNW 16.1 mph - N/A   Partly Cloudy
11:50 AM 42.8 °F 34.5 °F 33.8 °F 70% 30.09 in 6.2 mi NNW 18.4 mph - N/A   Partly Cloudy
12:20 PM 44.6 °F 36.9 °F 33.8 °F 66% 30.09 in 6.2 mi NNW 18.4 mph - N/A   Partly Cloudy
12:50 PM 44.6 °F 36.9 °F 35.6 °F 71% 30.09 in 6.2 mi NNW 18.4 mph - N/A   Scattered Clouds
1:20 PM 46.4 °F 39.0 °F 35.6 °F 66% 30.09 in 6.2 mi NNW 19.6 mph - N/A   Scattered Clouds
1:50 PM 46.4 °F 39.0 °F 35.6 °F 66% 30.09 in 6.2 mi NNW 19.6 mph - N/A   Scattered Clouds
2:50 PM 48.2 °F - 33.8 °F 58% 30.12 in 6.2 mi North 18.4 mph - N/A   Scattered Clouds
3:20 PM 48.2 °F - 33.8 °F 58% 30.09 in 6.2 mi North 19.6 mph - N/A   Scattered Clouds
3:50 PM 48.2 °F - 33.8 °F 58% 30.12 in 6.2 mi North 19.6 mph - N/A   Scattered Clouds
4:20 PM 48.2 °F - 33.8 °F 58% 30.12 in 6.2 mi North 18.4 mph - N/A   Scattered Clouds
4:50 PM 48.2 °F - 33.8 °F 58% 30.12 in 6.2 mi North 13.8 mph - N/A   Scattered Clouds
5:20 PM 46.4 °F 40.1 °F 33.8 °F 62% 30.12 in 6.2 mi North 15.0 mph - N/A   Partly Cloudy
5:50 PM 46.4 °F 41.5 °F 33.8 °F 62% 30.15 in 6.2 mi NNW 10.4 mph - N/A   Partly Cloudy
6:20 PM 44.6 °F 39.7 °F 35.6 °F 71% 30.15 in 6.2 mi NNW 9.2 mph - N/A   Partly Cloudy
6:50 PM 44.6 °F 39.7 °F 35.6 °F 71% 30.15 in - NW 9.2 mph - N/A   Clear